User: anonymous
Location: Caribou
(46.8667°N, 68.0167°W)
Time: 22:13:44
(UTC-04:00)
Language:

SL-08 RB Rocket - Orbit

View from above orbital plane
View from above orbital plane
View from above satellite
View from above satellite

Ground track
Ground track

The orbit data is extracted from the following two-line orbital elements,

1 26387U 00033D   14292.40187049  .00001488  00000-0  27025-3 0  6439
2 26387 098.0936 358.6943 0027296 177.7839 243.3366 14.67435561765309
Epoch (UTC): 19 October 2014 09:38:41
Eccentricity: 0.0027296
inclination: 98.0936°
perigee height: 650 km
apogee height: 688 km
right ascension of ascending node: 358.6943°
argument of perigee: 177.7839°
revolutions per day: 14.67435561
mean anomaly at epoch: 243.3366°
orbit number at epoch: 76530

The dashed part of the orbit path shows where the satellite is in the earth's shadow,  

DLR